"Pseudo-MPEC" for gb00852

Created 2026 Aug 12 1:35:32 UT using Find_Orb

Click here for an explanation of pseudo-MPECs

 
 Astrometry: 
     gb00852*KC2026 08 11.03451 22 35 58.10 +02 14 21.3    ~8B1o 18.4 GXNEOCPL51
     gb00852 KC2026 08 11.03587 22 35 56.62 +02 14 11.1    ~8B1o 17.9 GXNEOCPL51
     gb00852 KC2026 08 11.03722 22 35 55.13 +02 14 00.0    ~8B1o 17.9 GXNEOCPL51
     gb00852 0C2026 08 11.07416122 35 31.718+02 08 31.74   ~8B25 18.4 GWNEOCPJ95
     gb00852 0C2026 08 11.07521622 35 30.583+02 08 24.00   ~8B25 18.4 GWNEOCPJ95
     gb00852 0C2026 08 11.07629922 35 29.467+02 08 16.08   ~8B25 18.5 GWNEOCPJ95
     gb00852 KB2026 08 11.07630422 35 22.15 +02 08 58.5    ~8B25 18.6 GVNEOCPL01
     gb00852 KB2026 08 11.07717922 35 21.21 +02 08 51.9    ~8B25 18.4 GVNEOCPL01
     gb00852 KB2026 08 11.07792922 35 20.40 +02 08 46.3    ~8B25 18.6 GVNEOCPL01
     gb00852 KB2026 08 11.07880022 35 19.48 +02 08 39.5    ~8B25 18.5 GVNEOCPL01
     gb00852 0C2026 08 11.08612822 35 19.162+02 07 03.32   ~8B2Z 18.5 GWNEOCPJ95
     gb00852 0C2026 08 11.08904422 35 16.152+02 06 41.58   ~8B2Z 18.6 GWNEOCPJ95
     gb00852 0C2026 08 11.09163022 35 13.478+02 06 22.57   ~8B2Z 18.6 GWNEOCPJ95
     gb00852 KB2026 08 11.12782822 34 57.335+02 12 33.45   ~8B3o 18.9 VZNEOCPY05
     gb00852 KB2026 08 11.13315622 34 51.649+02 11 54.97   ~8B3o 18.8 VZNEOCPY05
     gb00852 KB2026 08 11.13816122 34 46.330+02 11 18.28   ~8B3o 19.3 VZNEOCPY05
     gb00852 KC2026 08 11.18977822 34 16.363+01 56 21.88   ~8B5Z 19.8 VZNEOCPH36
     gb00852 KC2026 08 11.20095522 34 05.914+01 55 08.87   ~8B5Z 18.8 VZNEOCPH36
     gb00852 KC2026 08 11.21213922 33 55.514+01 53 56.11   ~8B5Z 18.9 VZNEOCPH36
     gb00852 KC2026 08 11.24479422 33 21.56 +01 50 22.2    ~8B6Kx18.8 GVNEOCPH21
     gb00852 KC2026 08 11.24759222 33 18.96 +01 50 04.5    ~8B6Kx18.9 GVNEOCPH21
     gb00852 KC2026 08 11.24992022 33 16.83 +01 49 50.0    ~8B6Kx18.9 GVNEOCPH21
     gb00852*0C2026 08 11.49438722 30 24.116+01 29 23.91   ~8BEo 19.21wXNEOCPF51
     gb00852 0C2026 08 11.53509322 29 53.129+01 26 02.29   ~8BEo 19.21wXNEOCPF51
     gb00852 0C2026 08 11.62098822 28 53.700+01 19 17.56   ~8BKo 18.78GVNEOCPF51
     gb00852 KC2026 08 11.62563 22 29 12.87 +01 25 37.4    ~8BG5 18.7 GVNEOCPE23
     gb00852 KC2026 08 11.63602 22 29 05.78 +01 24 49.2    ~8BG5 19.1 GVNEOCPE23
     gb00852 KC2026 08 11.64631 22 28 58.84 +01 24 02.0    ~8BG5 18.9 GVNEOCPE23
     gb00852 KB2026 08 11.83429 22 27 42.06 +01 02 08.7    ~8BL5 19.6 GXNEOCPM75
     gb00852 KB2026 08 11.84399 22 27 36.71 +01 01 33.7    ~8BL5 18.9 GXNEOCPM75
     gb00852 KB2026 08 11.86874 22 27 27.32 +00 59 56.7    ~8BLo 19.4 GXNEOCPL04
     gb00852 KB2026 08 11.87610622 27 18.950+00 59 30.23   ~8BM5 19.5 GXNEOCPL76
     gb00852 KB2026 08 11.88351422 27 14.954+00 59 03.91   ~8BM5 19.1 GXNEOCPL76
     gb00852 KB2026 08 11.88577 22 27 18.29 +00 58 55.6    ~8BLo 19.3 GXNEOCPL04
     gb00852 KB2026 08 11.89092122 27 10.961+00 58 37.42   ~8BM5 18.8 GXNEOCPL76
     gb00852 KB2026 08 11.89815422 27 07.058+00 58 11.57   ~8BM5 19.3 GXNEOCPL76
     gb00852 KB2026 08 11.91034422 27 11.77 +00 57 38.1    ~8BMK 18.9 GXNEOCPI93
     gb00852 KB2026 08 11.91398522 27 09.92 +00 57 26.3    ~8BMK 18.8 GXNEOCPI93
     gb00852 KB2026 08 11.91684622 27 08.50 +00 57 16.0    ~8BMK 19.0 GXNEOCPI93
     gb00852 KC2026 08 11.95993122 26 43.668+00 54 33.84   ~8BNK 19.5 GWNEOCP151
     gb00852 KC2026 08 11.96133122 26 42.910+00 54 29.20   ~8BNK 19.3 GWNEOCP151
     gb00852 KC2026 08 11.96272022 26 42.209+00 54 25.67   ~8BNK 19.4 GWNEOCP151
     gb00852 KC2026 08 11.96410922 26 41.561+00 54 20.09   ~8BNK 19.4 GWNEOCP151
     gb00852 0C2026 08 12.04668122 26 03.098+00 49 31.48   ~8C1Z 19.1 GWNEOCPJ95
     gb00852 0C2026 08 12.04980222 26 01.562+00 49 21.97   ~8C1Z 19.3 GWNEOCPJ95
     gb00852 0C2026 08 12.05296922 26 00.043+00 49 12.22   ~8C1Z 19.4 GWNEOCPJ95

Station data:
(151) Eschenberg Observatory, Winterthur  (N47.476028 E8.744000)  Switzerland.
     Observer D. Luongo. 0.6-m f/3.8 Astrograph + CCD.
(E23) Arcadia  (S33.621197 E151.071190)  Australia/NSW.  Observer A. Hidas.
   0.35-m f/1.9 reflector + CCD.
(F51) Pan-STARRS 1, Haleakala  (N20.707234 W156.255910)  US/Hawaii.
   Observers J. Herman, T. Lowe, P. Minguez, A. Schultz, I. Smith. Measurers
   K. Chambers, T. de Boer, J. Fairlamb, H. Gao, M. Huber, C.-C. Lin, E.
   Magnier, Y. Ramanjooloo, R. Wainscoat, R. Weryk. 1.8-m Ritchey-Chrétien +
   CCD.
(H21) Astronomical Research Observatory, Westfield  (N39.483054 W87.968270)
   US/Illinois.  Observer R. Holmes. Measurers S. Foglia, L. Buzzi, T.
   Linder, R. Holmes. 0.40-m f/5.32 astrograph + CCD.
(H36) Sandlot Observatory, Scranton  (N38.797718 W95.706550)  US/Kansas.
   Observer G. Hug. 0.56-m reflector + CCD.
(I93) St Pardon de Conques  (N44.558670 W0.202960)  France.  Observers F.
   Losse, W. D'Anna. Measurer F. Losse. 0.40-m f/3.7 reflector + CCD.
(J95) Great Shefford  (N51.474969 W1.447003)  UK/England.  Observer P.
   Birtwhistle. 0.41-m f/6.3 Schmidt-Cassegrain + CCD.
(L01) Višnjan Observatory, Tičan  (N45.290897 E13.749300)  Croatia.
   Observers K. Korlević, L. Poropat. Measurer K. Korlevic. 1.0-m f/2.9
   reflector + CCD.
(L04) ROASTERR-1 Observatory, Cluj-Napoca  (N46.820952 E23.596400)  Romania.
   Observer L. Hudin. 0.1-m f/9 refractor + CCD.
(L51) MARGO, Nauchnij  (N44.729397 E34.016400)  Ukraine.  Observer G. Borisov.
    0.4-m f/2.3 astrograph + CCD.
(L76) Nomad Observatory, Kochevanchik  (N46.976193 E39.651610)  Russia.
   Observer E. Romas. 0.2-m f/5 reflector + CCD.
(M75) Online observatory, Peschany  (N45.742938 E39.511550)  Russia.
   Observer A. V. Skachedub. 0.28-m f/2.2 reflector + CMO.
(Y05) SONEAR Wykrota-CEAMIG, Serra da Piedade  (S19.824251 W43.690000)
   Brazil.  Observer C. Jacques. 0.45-m f/2.9 reflector + CMO.

Orbital elements:  gb00852
   Perihelion 2026 Jun 28.776725 +/- 0.00571 TT = 18:38:29.0 (JD 2461220.276725)
Epoch 2026 Aug 12.0 TT = JDT 2461264.5   Earth MOID: 0.0004   Ma: 0.0736
M  14.332024085 +/- 0.014           (J2000 ecliptic)             AutoNEOCP
n   0.324083282 +/- 0.000288        Peri.  299.984050 +/- 0.0011
a   2.099092756 +/- 0.00125         Node   316.204383 +/- 0.00046
e   0.60952066 +/- 0.000254         Incl.    4.023778 +/- 0.0012
P   3.04122                H 26.62  G  0.15   U  7.3
q 0.819652348 +/- 4.86e-5    Q 3.378533164 +/- 0.00255
43 of 46 observations 2026 Aug. 11-12 (24.4 hr); mean residual 0".32
Residuals in arcseconds: 
260811 L51  .44-  .60-    260811 H36  .14+  .24+    260811 L76  .05+  .27+    
260811 L51  .28-  .08-    260811 H36  .46-  .36+    260811 L04  .08-  .03+    
260811 L51  .49-  .55-    260811 H36  .60-  .02+    260811 L76  .28+  .24+    
260811 J95  .28+  .30-    260811 H21( 5.4-  2.5-)   260811 L76  .28+  .10+    
260811 J95  .06-  .15-    260811 H21( 5.7-  2.7-)   260811 I93  .14+  .15-    
260811 J95  .30+  .02+    260811 H21( 5.5-  2.7-)   260811 I93  .00   .77+    
260811 L01  .16+  .32+    260811 F51  .03-  .02+    260811 I93  .41+  .44+    
260811 L01  .09-  .30+    260811 F51  .01-  .02-    260811 151  .56+  .37-    
260811 L01  .37-  .33+    260811 F51  .07-  .12-    260811 151  .06-  .28-    
260811 L01  .41-  .06+    260811 E23  .31-  .23-    260811 151  .08+  .88+    
260811 J95  .11-  .28+    260811 E23  .18-  .26-    260811 151  1.0+  .01-    
260811 J95  .12+  .06+    260811 E23  .18+  .13-    260812 J95  .26+  .45-    
260811 J95  .10+  .09+    260811 M75  .24+  .43-    260812 J95  .30-  .04-    
260811 Y05  .15-  .32-    260811 M75  .32-  .43+    260812 J95  .33-  .25+    
260811 Y05  .08+  .29+    260811 L04  .24+  .01+    
260811 Y05  .33+  .15+    260811 L76  .29-  .02-    

Ephemerides (geocentric):
Date (UTC) HH   RA             Dec           delta  r     elong  mag " sig PA
---- --------  ------------   ------------  ------ ------ -----  --- --------
2026 08 12 02  22 25 49.010   +00 52 20.40  .02383 1.0356 158.2 19.6 .064   1
2026 08 12 03  22 25 33.726   +00 50 09.00  .02418 1.0359 158.3 19.7 .064   2
2026 08 12 04  22 25 18.880   +00 48 01.32  .02454 1.0362 158.4 19.7 .064   3
2026 08 12 05  22 25 04.453   +00 45 57.19  .02489 1.0366 158.5 19.7 .064   4
2026 08 12 06  22 24 50.426   +00 43 56.48  .02525 1.0369 158.6 19.7 .063   5
2026 08 12 07  22 24 36.784   +00 41 59.02  .02560 1.0373 158.7 19.8 .063   6
2026 08 12 08  22 24 23.511   +00 40 04.70  .02596 1.0376 158.8 19.8 .064   8
2026 08 12 09  22 24 10.591   +00 38 13.38  .02631 1.0379 158.9 19.8 .064   9
2026 08 12 10  22 23 58.011   +00 36 24.95  .02667 1.0383 159.0 19.8 .064  10
2026 08 12 11  22 23 45.757   +00 34 39.28  .02702 1.0386 159.1 19.9 .064  11
2026 08 12 12  22 23 33.817   +00 32 56.28  .02738 1.0390 159.2 19.9 .065  13
2026 08 12 13  22 23 22.179   +00 31 15.84  .02774 1.0393 159.3 19.9 .065  14
2026 08 12 14  22 23 10.830   +00 29 37.86  .02809 1.0397 159.3 20.0 .065  15
2026 08 12 15  22 22 59.761   +00 28 02.25  .02845 1.0400 159.4 20.0 .066  16
2026 08 12 16  22 22 48.960   +00 26 28.92  .02880 1.0403 159.5 20.0 .067  17
2026 08 12 17  22 22 38.419   +00 24 57.79  .02916 1.0407 159.6 20.0 .067  19
2026 08 12 18  22 22 28.128   +00 23 28.78  .02951 1.0410 159.7 20.1 .068  20
2026 08 12 19  22 22 18.077   +00 22 01.81  .02987 1.0414 159.8 20.1 .068  21
2026 08 12 20  22 22 08.259   +00 20 36.81  .03022 1.0417 159.8 20.1 .069  22
2026 08 12 21  22 21 58.665   +00 19 13.72  .03058 1.0420 159.9 20.1 .070  23
2026 08 12 22  22 21 49.287   +00 17 52.45  .03094 1.0424 160.0 20.1 .071  24
2026 08 12 23  22 21 40.119   +00 16 32.96  .03129 1.0427 160.1 20.2 .072  25
2026 08 13 00  22 21 31.152   +00 15 15.18  .03165 1.0431 160.1 20.2 .073  26
2026 08 13 01  22 21 22.381   +00 13 59.06  .03200 1.0434 160.2 20.2 .073  27
2026 08 13 02  22 21 13.799   +00 12 44.54  .03236 1.0438 160.3 20.2 .074  28
2026 08 13 03  22 21 05.400   +00 11 31.56  .03272 1.0441 160.4 20.3 .075  29
2026 08 13 04  22 20 57.178   +00 10 20.09  .03307 1.0444 160.4 20.3 .076  30
2026 08 13 05  22 20 49.127   +00 09 10.06  .03343 1.0448 160.5 20.3 .077  31
2026 08 13 06  22 20 41.242   +00 08 01.43  .03379 1.0451 160.6 20.3 .078  31
2026 08 13 07  22 20 33.517   +00 06 54.16  .03414 1.0455 160.6 20.3 .079  32
2026 08 13 08  22 20 25.948   +00 05 48.21  .03450 1.0458 160.7 20.4 .080  33
2026 08 13 09  22 20 18.530   +00 04 43.54  .03485 1.0462 160.8 20.4 .081  34
2026 08 13 10  22 20 11.259   +00 03 40.10  .03521 1.0465 160.8 20.4 .082  34
2026 08 13 11  22 20 04.129   +00 02 37.86  .03557 1.0468 160.9 20.4 .083  35
2026 08 13 12  22 19 57.137   +00 01 36.78  .03592 1.0472 161.0 20.4 .084  36
2026 08 13 13  22 19 50.279   +00 00 36.84  .03628 1.0475 161.0 20.5 .086  36
2026 08 13 14  22 19 43.551   -00 00 22.02  .03664 1.0479 161.1 20.5 .087  37
2026 08 13 15  22 19 36.949   -00 01 19.80  .03699 1.0482 161.2 20.5 .088  38
2026 08 13 16  22 19 30.469   -00 02 16.56  .03735 1.0486 161.2 20.5 .089  38
2026 08 13 17  22 19 24.109   -00 03 12.31  .03771 1.0489 161.3 20.5 .090  39
2026 08 13 18  22 19 17.864   -00 04 07.09  .03806 1.0493 161.4 20.6 .091  39
2026 08 13 19  22 19 11.731   -00 05 00.92  .03842 1.0496 161.4 20.6 .092  40
2026 08 13 20  22 19 05.708   -00 05 53.83  .03878 1.0499 161.5 20.6 .093  40
2026 08 13 21  22 18 59.791   -00 06 45.84  .03913 1.0503 161.5 20.6 .094  41
2026 08 13 22  22 18 53.978   -00 07 36.98  .03949 1.0506 161.6 20.6 .095  41
2026 08 13 23  22 18 48.265   -00 08 27.28  .03985 1.0510 161.7 20.7 .096  42
2026 08 14 00  22 18 42.651   -00 09 16.75  .04021 1.0513 161.7 20.7 .097  42
2026 08 14 01  22 18 37.132   -00 10 05.42  .04056 1.0517 161.8 20.7 .099  42